| time (UTC) | temp F | wind direction | speed MPH | gust MPH | rain 1hr in | rain 24hr in | rain mn in | humidity % | barometer mb |
| 20260902202523 | 99 | 226 | 2.0 | 9.0 | 0.00 | 0.00 | 0.00 | 15 | 1010.4 |
| 20260902202021 | 99 | 246 | 4.0 | 10.0 | 0.00 | 0.00 | 0.00 | 16 | 1010.5 |
| 20260902201521 | 99 | 210 | 6.0 | 12.0 | 0.00 | 0.00 | 0.00 | 16 | 1010.5 |
| 20260902201020 | 99 | 220 | 8.0 | 13.0 | 0.00 | 0.00 | 0.00 | 17 | 1010.5 |
| 20260902200521 | 99 | 196 | 7.0 | 13.0 | 0.00 | 0.00 | 0.00 | 18 | 1010.5 |
| 20260902200019 | 99 | 153 | 2.0 | 9.0 | 0.00 | 0.00 | 0.00 | 17 | 1010.6 |
| 20260902195519 | 99 | 150 | 1.0 | 9.0 | 0.00 | 0.00 | 0.00 | 17 | 1010.6 |
| 20260902195017 | 99 | 184 | 3.0 | 7.0 | 0.00 | 0.00 | 0.00 | 17 | 1010.6 |
| 20260902194517 | 98 | 15 | 2.0 | 12.0 | 0.00 | 0.00 | 0.00 | 17 | 1010.7 |
| 20260902194016 | 99 | 198 | 4.0 | 10.0 | 0.00 | 0.00 | 0.00 | 17 | 1010.8 |
| 20260902193515 | 98 | 204 | 8.0 | 15.0 | 0.00 | 0.00 | 0.00 | 18 | 1010.9 |
| 20260902192514 | 97 | 198 | 4.0 | 13.0 | 0.00 | 0.00 | 0.00 | 21 | 1011.0 |
| 20260902192013 | 97 | 117 | 7.0 | 13.0 | 0.00 | 0.00 | 0.00 | 21 | 1011.1 |
| 20260902191513 | 97 | 209 | 2.0 | 12.0 | 0.00 | 0.00 | 0.00 | 20 | 1011.2 |
| 20260902191012 | 97 | 223 | 7.0 | 12.0 | 0.00 | 0.00 | 0.00 | 20 | 1011.3 |
| 20260902190512 | 97 | 211 | 7.0 | 11.0 | 0.00 | 0.00 | 0.00 | 20 | 1011.3 |
| 20260902190011 | 96 | 170 | 3.0 | 11.0 | 0.00 | 0.00 | 0.00 | 22 | 1011.3 |
| 20260902185510 | 96 | 167 | 3.0 | 11.0 | 0.00 | 0.00 | 0.00 | 22 | 1011.5 |
| 20260902185009 | 96 | 189 | 8.0 | 13.0 | 0.00 | 0.00 | 0.00 | 22 | 1011.7 |
| 20260902184509 | 97 | 196 | 9.0 | 13.0 | 0.00 | 0.00 | 0.00 | 22 | 1011.7 |
| 20260902184008 | 96 | 65 | 4.0 | 13.0 | 0.00 | 0.00 | 0.00 | 23 | 1011.7 |
| 20260902183506 | 96 | 229 | 6.0 | 13.0 | 0.00 | 0.00 | 0.00 | 23 | 1011.8 |
| 20260902182505 | 95 | 222 | 5.0 | 12.0 | 0.00 | 0.00 | 0.00 | 24 | 1012.0 |
| 20260902182004 | 95 | 220 | 5.0 | 12.0 | 0.00 | 0.00 | 0.00 | 25 | 1012.1 |
| 20260902181503 | 95 | 234 | 5.0 | 11.0 | 0.00 | 0.00 | 0.00 | 24 | 1012.2 |
| 20260902181002 | 95 | 222 | 6.0 | 12.0 | 0.00 | 0.00 | 0.00 | 24 | 1012.3 |
| 20260902180503 | 95 | 250 | 6.0 | 12.0 | 0.00 | 0.00 | 0.00 | 25 | 1012.4 |
| 20260902180002 | 94 | 220 | 3.0 | 12.0 | 0.00 | 0.00 | 0.00 | 25 | 1012.5 |
| 20260902175600 | 94 | 205 | 7.0 | 12.0 | 0.00 | 0.00 | 0.00 | 26 | 1012.5 |
| 20260902175102 | 94 | 218 | 5.0 | 13.0 | 0.00 | 0.00 | 0.00 | 26 | 1012.5 |
| 20260902174600 | 94 | 238 | 4.0 | 12.0 | 0.00 | 0.00 | 0.00 | 27 | 1012.5 |
| 20260902174056 | 94 | 212 | 7.0 | 13.0 | 0.00 | 0.00 | 0.00 | 28 | 1012.7 |
| 20260902173555 | 93 | 200 | 7.0 | 13.0 | 0.00 | 0.00 | 0.00 | 28 | 1012.8 |
| 20260902172553 | 93 | 235 | 7.0 | 13.0 | 0.00 | 0.00 | 0.00 | 30 | 1013.1 |
| 20260902172052 | 92 | 232 | 7.0 | 13.0 | 0.00 | 0.00 | 0.00 | 30 | 1013.2 |
| 20260902171550 | 92 | 213 | 7.0 | 11.0 | 0.00 | 0.00 | 0.00 | 31 | 1013.2 |
| 20260902171050 | 91 | 243 | 4.0 | 15.0 | 0.00 | 0.00 | 0.00 | 32 | 1013.3 |
| 20260902170549 | 92 | 195 | 8.0 | 15.0 | 0.00 | 0.00 | 0.00 | 31 | 1013.4 |
| 20260902170052 | 91 | 195 | 8.0 | 12.0 | 0.00 | 0.00 | 0.00 | 32 | 1013.4 |
| 20260902165546 | 91 | 211 | 7.0 | 13.0 | 0.00 | 0.00 | 0.00 | 32 | 1013.4 |
| 20260902165045 | 91 | 214 | 7.0 | 13.0 | 0.00 | 0.00 | 0.00 | 33 | 1013.5 |
| 20260902164544 | 90 | 240 | 7.0 | 13.0 | 0.00 | 0.00 | 0.00 | 33 | 1013.5 |
| 20260902164042 | 90 | 179 | 5.0 | 11.0 | 0.00 | 0.00 | 0.00 | 35 | 1013.5 |
| 20260902163542 | 90 | 245 | 6.0 | 12.0 | 0.00 | 0.00 | 0.00 | 35 | 1013.5 |
| 20260902162542 | 89 | 199 | 5.0 | 14.0 | 0.00 | 0.00 | 0.00 | 36 | 1013.6 |
| 20260902162041 | 89 | 264 | 5.0 | 14.0 | 0.00 | 0.00 | 0.00 | 36 | 1013.7 |
| 20260902161541 | 89 | 212 | 5.0 | 12.0 | 0.00 | 0.00 | 0.00 | 37 | 1013.5 |
| 20260902161039 | 88 | 202 | 7.0 | 12.0 | 0.00 | 0.00 | 0.00 | 37 | 1013.5 |
| 20260902160538 | 88 | 216 | 4.0 | 10.0 | 0.00 | 0.00 | 0.00 | 39 | 1013.7 |
| 20260902160038 | 87 | 204 | 6.0 | 10.0 | 0.00 | 0.00 | 0.00 | 40 | 1013.6 |
| 20260902155537 | 87 | 186 | 5.0 | 11.0 | 0.00 | 0.00 | 0.00 | 41 | 1013.6 |
| 20260902155036 | 87 | 190 | 7.0 | 11.0 | 0.00 | 0.00 | 0.00 | 41 | 1013.7 |
| 20260902154538 | 86 | 204 | 4.0 | 11.0 | 0.00 | 0.00 | 0.00 | 44 | 1013.6 |
| 20260902154033 | 86 | 199 | 4.0 | 10.0 | 0.00 | 0.00 | 0.00 | 45 | 1013.6 |
| 20260902153533 | 86 | 190 | 5.0 | 11.0 | 0.00 | 0.00 | 0.00 | 44 | 1013.6 |
| 20260902152531 | 85 | 181 | 4.0 | 11.0 | 0.00 | 0.00 | 0.00 | 46 | 1013.6 |
| 20260902152032 | 85 | 187 | 4.0 | 10.0 | 0.00 | 0.00 | 0.00 | 45 | 1013.6 |
| 20260902151535 | 85 | 210 | 6.0 | 13.0 | 0.00 | 0.00 | 0.00 | 46 | 1013.6 |
| 20260902151031 | 84 | 214 | 5.0 | 11.0 | 0.00 | 0.00 | 0.00 | 46 | 1013.5 |
| 20260902150529 | 84 | 173 | 6.0 | 10.0 | 0.00 | 0.00 | 0.00 | 46 | 1013.6 |
| 20260902150028 | 83 | 199 | 6.0 | 11.0 | 0.00 | 0.00 | 0.00 | 48 | 1013.6 |
| 20260902145527 | 83 | 188 | 6.0 | 12.0 | 0.00 | 0.00 | 0.00 | 47 | 1013.5 |
| 20260902145027 | 83 | 190 | 5.0 | 12.0 | 0.00 | 0.00 | 0.00 | 48 | 1013.6 |
| 20260902144527 | 83 | 176 | 6.0 | 12.0 | 0.00 | 0.00 | 0.00 | 48 | 1013.5 |
| 20260902144027 | 83 | 190 | 7.0 | 12.0 | 0.00 | 0.00 | 0.00 | 49 | 1013.6 |
| 20260902143530 | 82 | 191 | 8.0 | 13.0 | 0.00 | 0.00 | 0.00 | 49 | 1013.5 |
| 20260902142527 | 82 | 196 | 8.0 | 12.0 | 0.00 | 0.00 | 0.00 | 50 | 1013.6 |
| 20260902142028 | 82 | 181 | 6.0 | 11.0 | 0.00 | 0.00 | 0.00 | 50 | 1013.6 |
| 20260902141526 | 82 | 177 | 7.0 | 11.0 | 0.00 | 0.00 | 0.00 | 49 | 1013.7 |
| 20260902141025 | 81 | 168 | 6.0 | 10.0 | 0.00 | 0.00 | 0.00 | 50 | 1013.7 |
| 20260902140526 | 81 | 195 | 6.0 | 10.0 | 0.00 | 0.00 | 0.00 | 50 | 1013.7 |
| 20260902140026 | 81 | 197 | 4.0 | 10.0 | 0.00 | 0.00 | 0.00 | 50 | 1013.6 |
| 20260902135524 | 81 | 167 | 4.0 | 8.0 | 0.00 | 0.00 | 0.00 | 49 | 1013.7 |
| 20260902135024 | 80 | 179 | 2.0 | 6.0 | 0.00 | 0.00 | 0.00 | 49 | 1013.5 |
| 20260902134523 | 80 | 169 | 2.0 | 6.0 | 0.00 | 0.00 | 0.00 | 49 | 1013.5 |
| 20260902134024 | 79 | 168 | 2.0 | 6.0 | 0.00 | 0.00 | 0.00 | 49 | 1013.5 |
| 20260902133522 | 79 | 166 | 2.0 | 3.0 | 0.00 | 0.00 | 0.00 | 48 | 1013.4 |
| 20260902132525 | 78 | 165 | 2.0 | 3.0 | 0.00 | 0.00 | 0.00 | 48 | 1013.4 |
| 20260902132020 | 78 | 165 | 2.0 | 3.0 | 0.00 | 0.00 | 0.00 | 48 | 1013.3 |
| 20260902131520 | 78 | 165 | 1.0 | 3.0 | 0.00 | 0.00 | 0.00 | 48 | 1013.4 |
| 20260902131019 | 77 | 165 | 2.0 | 4.0 | 0.00 | 0.00 | 0.00 | 48 | 1013.4 |
| 20260902130519 | 77 | 165 | 2.0 | 4.0 | 0.00 | 0.00 | 0.00 | 49 | 1013.4 |
| 20260902130018 | 77 | 165 | 2.0 | 5.0 | 0.00 | 0.00 | 0.00 | 49 | 1013.2 |
| 20260902125517 | 77 | 164 | 2.0 | 5.0 | 0.00 | 0.00 | 0.00 | 48 | 1013.2 |
| 20260902125017 | 77 | 164 | 1.0 | 3.0 | 0.00 | 0.00 | 0.00 | 48 | 1013.2 |
| 20260902124516 | 77 | 165 | 1.0 | 3.0 | 0.00 | 0.00 | 0.00 | 47 | 1013.1 |
| 20260902124018 | 77 | 165 | 1.0 | 3.0 | 0.00 | 0.00 | 0.00 | 47 | 1013.0 |
| 20260902123515 | 77 | 165 | 1.0 | 3.0 | 0.00 | 0.00 | 0.00 | 47 | 1013.1 |
| 20260902122515 | 77 | 165 | 1.0 | 4.0 | 0.00 | 0.00 | 0.00 | 46 | 1013.0 |
| 20260902122017 | 77 | 165 | 1.0 | 4.0 | 0.00 | 0.00 | 0.00 | 46 | 1013.0 |
| 20260902121513 | 77 | 165 | 1.0 | 3.0 | 0.00 | 0.00 | 0.00 | 45 | 1012.9 |
| 20260902121013 | 77 | 165 | 1.0 | 3.0 | 0.00 | 0.00 | 0.00 | 45 | 1012.9 |
| 20260902120513 | 77 | 165 | 1.0 | 4.0 | 0.00 | 0.00 | 0.00 | 44 | 1013.0 |
| 20260902120012 | 77 | 165 | 2.0 | 4.0 | 0.00 | 0.00 | 0.00 | 44 | 1012.9 |
| 20260902115511 | 77 | 164 | 1.0 | 4.0 | 0.00 | 0.00 | 0.00 | 44 | 1012.8 |
| 20260902115011 | 77 | 165 | 2.0 | 4.0 | 0.00 | 0.00 | 0.00 | 44 | 1012.8 |
| 20260902114510 | 77 | 164 | 2.0 | 4.0 | 0.00 | 0.00 | 0.00 | 44 | 1012.8 |
| 20260902114011 | 77 | 164 | 2.0 | 4.0 | 0.00 | 0.00 | 0.00 | 44 | 1012.7 |
| 20260902113509 | 77 | 164 | 2.0 | 4.0 | 0.00 | 0.00 | 0.00 | 44 | 1012.8 |
| 20260902112509 | 77 | 164 | 1.0 | 3.0 | 0.00 | 0.00 | 0.00 | 43 | 1012.7 |
| 20260902112007 | 77 | 164 | 1.0 | 3.0 | 0.00 | 0.00 | 0.00 | 42 | 1012.7 |
| 20260902111505 | 78 | 164 | 1.0 | 4.0 | 0.00 | 0.00 | 0.00 | 42 | 1012.8 |
| 20260902111004 | 78 | 164 | 2.0 | 5.0 | 0.00 | 0.00 | 0.00 | 42 | 1012.7 |
| 20260902110506 | 78 | 163 | 2.0 | 5.0 | 0.00 | 0.00 | 0.00 | 42 | 1012.8 |
| 20260902110012 | 78 | 162 | 2.0 | 4.0 | 0.00 | 0.00 | 0.00 | 42 | 1012.7 |
| 20260902105505 | 78 | 162 | 1.0 | 3.0 | 0.00 | 0.00 | 0.00 | 41 | 1012.8 |
| 20260902105003 | 78 | 162 | 1.0 | 3.0 | 0.00 | 0.00 | 0.00 | 41 | 1012.7 |
| 20260902104507 | 78 | 162 | 1.0 | 4.0 | 0.00 | 0.00 | 0.00 | 41 | 1012.7 |
| 20260902104002 | 78 | 162 | 2.0 | 4.0 | 0.00 | 0.00 | 0.00 | 41 | 1012.8 |
| 20260902103501 | 78 | 162 | 1.0 | 4.0 | 0.00 | 0.00 | 0.00 | 41 | 1012.7 |
| 20260902102600 | 78 | 161 | 1.0 | 3.0 | 0.00 | 0.00 | 0.00 | 41 | 1012.8 |
| 20260902102100 | 79 | 161 | 1.0 | 4.0 | 0.00 | 0.00 | 0.00 | 41 | 1012.7 |
| 20260902101608 | 79 | 162 | 2.0 | 4.0 | 0.00 | 0.00 | 0.00 | 41 | 1012.8 |
| 20260902101100 | 79 | 161 | 2.0 | 4.0 | 0.00 | 0.00 | 0.00 | 40 | 1012.8 |
| 20260902100559 | 79 | 162 | 2.0 | 4.0 | 0.00 | 0.00 | 0.00 | 40 | 1012.7 |
| 20260902100059 | 79 | 161 | 1.0 | 4.0 | 0.00 | 0.00 | 0.00 | 40 | 1012.8 |
| 20260902095559 | 79 | 161 | 1.0 | 3.0 | 0.00 | 0.00 | 0.00 | 40 | 1012.8 |
| 20260902095059 | 79 | 161 | 2.0 | 4.0 | 0.00 | 0.00 | 0.00 | 40 | 1012.8 |
| 20260902094558 | 79 | 160 | 2.0 | 5.0 | 0.00 | 0.00 | 0.00 | 40 | 1012.7 |
| 20260902094058 | 79 | 159 | 1.0 | 5.0 | 0.00 | 0.00 | 0.00 | 40 | 1012.7 |
| 20260902093556 | 79 | 158 | 3.0 | 5.0 | 0.00 | 0.00 | 0.00 | 40 | 1012.7 |
| 20260902092600 | 80 | 169 | 3.0 | 5.0 | 0.00 | 0.00 | 0.00 | 40 | 1012.7 |
| 20260902092058 | 80 | 169 | 2.0 | 4.0 | 0.00 | 0.00 | 0.00 | 40 | 1012.7 |
| 20260902091557 | 80 | 171 | 2.0 | 4.0 | 0.00 | 0.00 | 0.00 | 39 | 1012.6 |
| 20260902091055 | 80 | 171 | 1.0 | 4.0 | 0.00 | 0.00 | 0.00 | 39 | 1012.6 |
| 20260902090554 | 80 | 171 | 2.0 | 4.0 | 0.00 | 0.00 | 0.00 | 39 | 1012.6 |
| 20260902090055 | 80 | 171 | 2.0 | 4.0 | 0.00 | 0.00 | 0.00 | 39 | 1012.7 |
| 20260902085553 | 80 | 175 | 2.0 | 4.0 | 0.00 | 0.00 | 0.00 | 39 | 1012.7 |
| 20260902085053 | 80 | 175 | 2.0 | 4.0 | 0.00 | 0.00 | 0.00 | 39 | 1012.6 |
| 20260902084557 | 80 | 176 | 1.0 | 4.0 | 0.00 | 0.00 | 0.00 | 39 | 1012.6 |
| 20260902084055 | 80 | 176 | 1.0 | 4.0 | 0.00 | 0.00 | 0.00 | 39 | 1012.6 |
| 20260902083557 | 80 | 176 | 2.0 | 4.0 | 0.00 | 0.00 | 0.00 | 39 | 1012.7 |
| 20260902082552 | 81 | 176 | 1.0 | 3.0 | 0.00 | 0.00 | 0.00 | 39 | 1012.7 |
| 20260902082051 | 81 | 176 | 1.0 | 4.0 | 0.00 | 0.00 | 0.00 | 39 | 1012.7 |
| 20260902081551 | 81 | 176 | 1.0 | 4.0 | 0.00 | 0.00 | 0.00 | 39 | 1012.7 |
| 20260902081051 | 81 | 176 | 2.0 | 4.0 | 0.00 | 0.00 | 0.00 | 38 | 1012.7 |
| 20260902080549 | 82 | 176 | 2.0 | 4.0 | 0.00 | 0.00 | 0.00 | 38 | 1012.6 |
| 20260902080049 | 82 | 176 | 1.0 | 4.0 | 0.00 | 0.00 | 0.00 | 38 | 1012.7 |
| 20260902075547 | 82 | 176 | 1.0 | 3.0 | 0.00 | 0.00 | 0.00 | 38 | 1012.7 |
| 20260902075047 | 82 | 176 | 2.0 | 3.0 | 0.00 | 0.00 | 0.00 | 37 | 1012.7 |
| 20260902074546 | 82 | 176 | 1.0 | 3.0 | 0.00 | 0.00 | 0.00 | 37 | 1012.7 |
| 20260902074045 | 82 | 176 | 1.0 | 5.0 | 0.00 | 0.00 | 0.00 | 37 | 1012.7 |
| 20260902073547 | 83 | 176 | 2.0 | 5.0 | 0.00 | 0.00 | 0.00 | 37 | 1012.6 |
| 20260902072546 | 83 | 179 | 2.0 | 4.0 | 0.00 | 0.00 | 0.00 | 37 | 1012.6 |
| 20260902072046 | 83 | 179 | 2.0 | 4.0 | 0.00 | 0.00 | 0.00 | 37 | 1012.7 |
| 20260902071544 | 83 | 179 | 2.0 | 4.0 | 0.00 | 0.00 | 0.00 | 36 | 1012.6 |
| 20260902071043 | 83 | 179 | 1.0 | 3.0 | 0.00 | 0.00 | 0.00 | 36 | 1012.7 |
| 20260902070542 | 83 | 179 | 2.0 | 4.0 | 0.00 | 0.00 | 0.00 | 36 | 1012.7 |
| 20260902070044 | 83 | 179 | 2.0 | 4.0 | 0.00 | 0.00 | 0.00 | 36 | 1012.7 |
| 20260902065546 | 83 | 179 | 2.0 | 4.0 | 0.00 | 0.00 | 0.00 | 36 | 1012.6 |
| 20260902065042 | 83 | 181 | 2.0 | 4.0 | 0.00 | 0.00 | 0.00 | 36 | 1012.5 |
| 20260902064543 | 83 | 181 | 2.0 | 4.0 | 0.00 | 0.00 | 0.00 | 36 | 1012.5 |
| 20260902064042 | 84 | 181 | 2.0 | 4.0 | 0.00 | 0.00 | 0.00 | 36 | 1012.4 |
| 20260902063542 | 84 | 181 | 1.0 | 4.0 | 0.00 | 0.00 | 0.00 | 36 | 1012.4 |
| 20260902062541 | 84 | 183 | 1.0 | 3.0 | 0.00 | 0.00 | 0.00 | 35 | 1012.4 |
| 20260902062039 | 84 | 183 | 2.0 | 5.0 | 0.00 | 0.00 | 0.00 | 35 | 1012.4 |
| 20260902061600 | 84 | 183 | 1.0 | 4.0 | 0.00 | 0.00 | 0.00 | 35 | 1012.4 |
| 20260902061048 | 84 | 183 | 2.0 | 4.0 | 0.00 | 0.00 | 0.00 | 35 | 1012.3 |
| 20260902060538 | 84 | 183 | 2.0 | 5.0 | 0.00 | 0.00 | 0.00 | 34 | 1012.4 |
| 20260902060042 | 84 | 184 | 1.0 | 5.0 | 0.00 | 0.00 | 0.00 | 34 | 1012.4 |
| 20260902055538 | 85 | 184 | 2.0 | 6.0 | 0.00 | 0.00 | 0.00 | 34 | 1012.4 |
| 20260902055037 | 85 | 191 | 2.0 | 8.0 | 0.00 | 0.00 | 0.00 | 34 | 1012.3 |
| 20260902054537 | 85 | 190 | 3.0 | 8.0 | 0.00 | 0.00 | 0.00 | 34 | 1012.3 |
| 20260902054036 | 85 | 179 | 5.0 | 7.0 | 0.00 | 0.00 | 0.00 | 34 | 1012.2 |
| 20260902053536 | 85 | 192 | 4.0 | 8.0 | 0.00 | 0.00 | 0.00 | 33 | 1012.2 |
| 20260902052534 | 85 | 195 | 2.0 | 5.0 | 0.00 | 0.00 | 0.00 | 33 | 1012.4 |
| 20260902052033 | 85 | 196 | 2.0 | 5.0 | 0.00 | 0.00 | 0.00 | 33 | 1012.5 |
| 20260902051550 | 85 | 196 | 4.0 | 5.0 | 0.00 | 0.00 | 0.00 | 33 | 1012.5 |
| 20260902051032 | 85 | 167 | 2.0 | 5.0 | 0.00 | 0.00 | 0.00 | 33 | 1012.6 |
| 20260902050531 | 85 | 167 | 1.0 | 4.0 | 0.00 | 0.00 | 0.00 | 33 | 1012.6 |
| 20260902050033 | 85 | 166 | 1.0 | 5.0 | 0.00 | 0.00 | 0.00 | 33 | 1012.6 |
| 20260902045530 | 85 | 166 | 2.0 | 5.0 | 0.00 | 0.00 | 0.00 | 32 | 1012.5 |
| 20260902045029 | 86 | 181 | 1.0 | 3.0 | 0.00 | 0.00 | 0.00 | 32 | 1012.5 |
| 20260902044558 | 86 | 181 | 2.0 | 5.0 | 0.00 | 0.00 | 0.00 | 32 | 1012.6 |
| 20260902044032 | 86 | 181 | 3.0 | 5.0 | 0.00 | 0.00 | 0.00 | 31 | 1012.6 |
| 20260902043528 | 86 | 181 | 2.0 | 5.0 | 0.00 | 0.00 | 0.00 | 31 | 1012.6 |
| 20260902042529 | 86 | 159 | 2.0 | 5.0 | 0.00 | 0.00 | 0.00 | 31 | 1012.6 |
| 20260902042029 | 86 | 157 | 2.0 | 3.0 | 0.00 | 0.00 | 0.00 | 31 | 1012.5 |
| 20260902041534 | 87 | 157 | 2.0 | 4.0 | 0.00 | 0.00 | 0.00 | 30 | 1012.5 |
| 20260902041028 | 87 | 157 | 2.0 | 4.0 | 0.00 | 0.00 | 0.00 | 30 | 1012.6 |
| 20260902040528 | 87 | 156 | 2.0 | 4.0 | 0.00 | 0.00 | 0.00 | 30 | 1012.4 |
| 20260902040029 | 87 | 195 | 2.0 | 4.0 | 0.00 | 0.00 | 0.00 | 30 | 1012.5 |
| 20260902035529 | 87 | 195 | 2.0 | 4.0 | 0.00 | 0.00 | 0.00 | 30 | 1012.4 |
| 20260902035032 | 88 | 196 | 2.0 | 5.0 | 0.00 | 0.00 | 0.00 | 29 | 1012.4 |
| 20260902034528 | 88 | 196 | 2.0 | 6.0 | 0.00 | 0.00 | 0.00 | 29 | 1012.3 |
| 20260902034028 | 88 | 191 | 2.0 | 9.0 | 0.00 | 0.00 | 0.00 | 29 | 1012.3 |
| 20260902033527 | 88 | 181 | 3.0 | 6.0 | 0.00 | 0.00 | 0.00 | 29 | 1012.3 |
| 20260902032529 | 88 | 186 | 2.0 | 5.0 | 0.00 | 0.00 | 0.00 | 28 | 1012.1 |
| 20260902032025 | 88 | 153 | 2.0 | 5.0 | 0.00 | 0.00 | 0.00 | 28 | 1012.0 |
| 20260902031542 | 88 | 160 | 2.0 | 5.0 | 0.00 | 0.00 | 0.00 | 28 | 1011.9 |
| 20260902031025 | 88 | 158 | 2.0 | 5.0 | 0.00 | 0.00 | 0.00 | 28 | 1011.8 |
| 20260902030527 | 88 | 162 | 2.0 | 5.0 | 0.00 | 0.00 | 0.00 | 28 | 1011.7 |
| 20260902030025 | 88 | 178 | 2.0 | 4.0 | 0.00 | 0.00 | 0.00 | 27 | 1011.6 |
| 20260902025526 | 89 | 179 | 2.0 | 5.0 | 0.00 | 0.00 | 0.00 | 27 | 1011.5 |
| 20260902025025 | 89 | 179 | 2.0 | 5.0 | 0.00 | 0.00 | 0.00 | 26 | 1011.4 |
| 20260902024524 | 89 | 178 | 2.0 | 4.0 | 0.00 | 0.00 | 0.00 | 26 | 1011.1 |
| 20260902024023 | 90 | 179 | 2.0 | 4.0 | 0.00 | 0.00 | 0.00 | 26 | 1011.1 |
| 20260902023524 | 90 | 183 | 2.0 | 6.0 | 0.00 | 0.00 | 0.00 | 26 | 1011.0 |
| 20260902023029 | 90 | 183 | 3.0 | 6.0 | 0.00 | 0.00 | 0.00 | 26 | 1011.0 |
| 20260902022524 | 90 | 191 | 2.0 | 4.0 | 0.00 | 0.00 | 0.00 | 25 | 1010.8 |
| 20260902022024 | 90 | 191 | 2.0 | 4.0 | 0.00 | 0.00 | 0.00 | 25 | 1010.7 |
| 20260902021524 | 91 | 191 | 2.0 | 4.0 | 0.00 | 0.00 | 0.00 | 25 | 1010.6 |
| 20260902021026 | 91 | 191 | 2.0 | 3.0 | 0.00 | 0.00 | 0.00 | 25 | 1010.5 |
| 20260902020523 | 91 | 191 | 2.0 | 4.0 | 0.00 | 0.00 | 0.00 | 25 | 1010.3 |
| 20260902015521 | 92 | 191 | 2.0 | 4.0 | 0.00 | 0.00 | 0.00 | 24 | 1010.2 |
| 20260902015021 | 92 | 191 | 2.0 | 5.0 | 0.00 | 0.00 | 0.00 | 24 | 1010.3 |
| 20260902014521 | 92 | 191 | 3.0 | 5.0 | 0.00 | 0.00 | 0.00 | 23 | 1010.1 |
| 20260902014020 | 93 | 191 | 3.0 | 6.0 | 0.00 | 0.00 | 0.00 | 23 | 1010.0 |
| 20260902013522 | 93 | 187 | 3.0 | 6.0 | 0.00 | 0.00 | 0.00 | 23 | 1010.0 |
| 20260902013023 | 93 | 180 | 3.0 | 6.0 | 0.00 | 0.00 | 0.00 | 22 | 1009.9 |
| 20260902012521 | 94 | 152 | 3.0 | 6.0 | 0.00 | 0.00 | 0.00 | 22 | 1009.8 |
| 20260902012020 | 94 | 187 | 3.0 | 10.0 | 0.00 | 0.00 | 0.00 | 22 | 1009.8 |
| 20260902011528 | 94 | 194 | 5.0 | 10.0 | 0.00 | 0.00 | 0.00 | 22 | 1009.7 |
| 20260902011021 | 94 | 193 | 4.0 | 12.0 | 0.00 | 0.00 | 0.00 | 21 | 1009.8 |
| 20260902010520 | 95 | 188 | 7.0 | 12.0 | 0.00 | 0.00 | 0.00 | 21 | 1009.8 |
| 20260902010020 | 95 | 196 | 6.0 | 12.0 | 0.00 | 0.00 | 0.00 | 21 | 1009.8 |
| 20260902005519 | 95 | 175 | 7.0 | 11.0 | 0.00 | 0.00 | 0.00 | 21 | 1009.7 |
| 20260902005022 | 95 | 218 | 8.0 | 11.0 | 0.00 | 0.00 | 0.00 | 21 | 1009.7 |
| 20260902004520 | 95 | 213 | 6.0 | 10.0 | 0.00 | 0.00 | 0.00 | 21 | 1009.7 |
| 20260902004018 | 96 | 200 | 4.0 | 13.0 | 0.00 | 0.00 | 0.00 | 21 | 1009.7 |
| 20260902003519 | 96 | 227 | 8.0 | 13.0 | 0.00 | 0.00 | 0.00 | 20 | 1009.7 |
| 20260902002523 | 96 | 181 | 6.0 | 13.0 | 0.00 | 0.00 | 0.00 | 20 | 1009.6 |
| 20260902002018 | 96 | 206 | 7.0 | 13.0 | 0.00 | 0.00 | 0.00 | 20 | 1009.5 |
| 20260902001519 | 96 | 191 | 6.0 | 13.0 | 0.00 | 0.00 | 0.00 | 20 | 1009.5 |
| 20260902001018 | 97 | 206 | 8.0 | 12.0 | 0.00 | 0.00 | 0.00 | 20 | 1009.6 |
| 20260902000518 | 97 | 197 | 6.0 | 11.0 | 0.00 | 0.00 | 0.00 | 20 | 1009.5 |
| 20260902000018 | 97 | 200 | 7.0 | 11.0 | 0.00 | 0.00 | 0.00 | 20 | 1009.4 |
| 20260901235518 | 97 | 206 | 4.0 | 11.0 | 0.00 | 0.00 | 0.00 | 19 | 1009.4 |
| 20260901235020 | 97 | 196 | 6.0 | 13.0 | 0.00 | 0.00 | 0.00 | 20 | 1009.4 |
| 20260901234517 | 97 | 211 | 5.0 | 13.0 | 0.00 | 0.00 | 0.00 | 20 | 1009.5 |
| 20260901234018 | 97 | 200 | 7.0 | 12.0 | 0.00 | 0.00 | 0.00 | 20 | 1009.5 |
| 20260901233518 | 97 | 220 | 7.0 | 12.0 | 0.00 | 0.00 | 0.00 | 20 | 1009.6 |
| 20260901232518 | 97 | 162 | 6.0 | 10.0 | 0.00 | 0.00 | 0.00 | 20 | 1009.6 |
| 20260901232019 | 96 | 194 | 5.0 | 10.0 | 0.00 | 0.00 | 0.00 | 20 | 1009.6 |
| 20260901231525 | 96 | 181 | 3.0 | 10.0 | 0.00 | 0.00 | 0.00 | 20 | 1009.5 |
| 20260901231017 | 97 | 177 | 6.0 | 10.0 | 0.00 | 0.00 | 0.00 | 20 | 1009.6 |
| 20260901230518 | 97 | 146 | 4.0 | 12.0 | 0.00 | 0.00 | 0.00 | 20 | 1009.5 |
| 20260901230020 | 97 | 185 | 6.0 | 12.0 | 0.00 | 0.00 | 0.00 | 20 | 1009.5 |
| 20260901225519 | 97 | 137 | 8.0 | 15.0 | 0.00 | 0.00 | 0.00 | 20 | 1009.6 |
| 20260901225018 | 97 | 192 | 8.0 | 15.0 | 0.00 | 0.00 | 0.00 | 20 | 1009.5 |
| 20260901224517 | 98 | 110 | 8.0 | 14.0 | 0.00 | 0.00 | 0.00 | 20 | 1009.4 |
| 20260901224021 | 98 | 168 | 7.0 | 16.0 | 0.00 | 0.00 | 0.00 | 20 | 1009.5 |
| 20260901223517 | 98 | 144 | 6.0 | 13.0 | 0.00 | 0.00 | 0.00 | 20 | 1009.6 |
| 20260901222519 | 98 | 154 | 6.0 | 14.0 | 0.00 | 0.00 | 0.00 | 19 | 1009.3 |
| 20260901222022 | 98 | 158 | 8.0 | 14.0 | 0.00 | 0.00 | 0.00 | 19 | 1009.4 |
| 20260901221517 | 98 | 209 | 6.0 | 12.0 | 0.00 | 0.00 | 0.00 | 19 | 1009.6 |
| 20260901221018 | 98 | 168 | 7.0 | 13.0 | 0.00 | 0.00 | 0.00 | 19 | 1009.8 |
| 20260901220516 | 98 | 193 | 7.0 | 13.0 | 0.00 | 0.00 | 0.00 | 19 | 1009.7 |
| 20260901220016 | 98 | 133 | 4.0 | 13.0 | 0.00 | 0.00 | 0.00 | 19 | 1009.7 |
| 20260901215515 | 98 | 179 | 5.0 | 13.0 | 0.00 | 0.00 | 0.00 | 19 | 1009.8 |
| 20260901215015 | 97 | 192 | 8.0 | 11.0 | 0.00 | 0.00 | 0.00 | 19 | 1009.8 |
| 20260901214514 | 98 | 193 | 7.0 | 11.0 | 0.00 | 0.00 | 0.00 | 20 | 1009.8 |
| 20260901214014 | 98 | 206 | 7.0 | 14.0 | 0.00 | 0.00 | 0.00 | 20 | 1009.8 |
| 20260901213515 | 98 | 148 | 5.0 | 14.0 | 0.00 | 0.00 | 0.00 | 19 | 1009.9 |
| 20260901212511 | 98 | 158 | 6.0 | 12.0 | 0.00 | 0.00 | 0.00 | 20 | 1010.1 |
| 20260901212012 | 97 | 183 | 6.0 | 12.0 | 0.00 | 0.00 | 0.00 | 20 | 1010.1 |
| 20260901211513 | 98 | 277 | 6.0 | 14.0 | 0.00 | 0.00 | 0.00 | 19 | 1010.2 |
| 20260901211010 | 98 | 255 | 2.0 | 14.0 | 0.00 | 0.00 | 0.00 | 19 | 1010.3 |
| 20260901210508 | 97 | 189 | 6.0 | 14.0 | 0.00 | 0.00 | 0.00 | 20 | 1010.6 |
| 20260901210013 | 97 | 230 | 10.0 | 14.0 | 0.00 | 0.00 | 0.00 | 20 | 1010.6 |
| 20260901205506 | 97 | 214 | 4.0 | 15.0 | 0.00 | 0.00 | 0.00 | 20 | 1010.6 |
| 20260901205006 | 97 | 218 | 6.0 | 15.0 | 0.00 | 0.00 | 0.00 | 21 | 1010.7 |
| 20260901204508 | 96 | 229 | 5.0 | 17.0 | 0.00 | 0.00 | 0.00 | 21 | 1010.8 |
| 20260901204004 | 96 | 202 | 8.0 | 11.0 | 0.00 | 0.00 | 0.00 | 21 | 1010.9 |
| 20260901203503 | 96 | 139 | 5.0 | 14.0 | 0.00 | 0.00 | 0.00 | 21 | 1010.9 |